Time,TemperatureF,DewpointF,PressureIn,WindDirection,WindDirectionDegrees,WindSpeedMPH,WindSpeedGustMPH,Humidity,HourlyPrecipIn,Conditions,Clouds,dailyrainin,SoftwareType,DateUTC
2013-03-07 00:13:00,32.1,29.0,30.25,NW,325,0.0,0.0,87,0.00,,,0.00,weatherlink.com 1.10,2013-03-07 05:13:00,
2013-03-07 00:28:00,32.0,29.0,30.25,NW,325,0.0,0.0,88,0.00,,,0.00,weatherlink.com 1.10,2013-03-07 05:28:00,
2013-03-07 00:43:00,32.0,29.0,30.25,NW,325,0.0,0.0,88,0.00,,,0.00,weatherlink.com 1.10,2013-03-07 05:43:00,
2013-03-07 00:58:00,31.9,29.0,30.25,NW,325,0.0,0.0,88,0.00,,,0.00,weatherlink.com 1.10,2013-03-07 05:58:00,
2013-03-07 01:13:00,31.7,29.0,30.25,NW,325,0.0,0.0,89,0.00,,,0.00,weatherlink.com 1.10,2013-03-07 06:13:00,
2013-03-07 01:28:00,31.6,29.0,30.25,NW,325,0.0,0.0,88,0.00,,,0.00,weatherlink.com 1.10,2013-03-07 06:28:00,
2013-03-07 01:43:00,31.5,29.0,30.25,NW,325,0.0,0.0,89,0.00,,,0.00,weatherlink.com 1.10,2013-03-07 06:43:00,
2013-03-07 01:58:00,31.4,29.0,30.25,NW,325,0.0,0.0,89,0.00,,,0.00,weatherlink.com 1.10,2013-03-07 06:58:00,
2013-03-07 02:13:00,31.3,29.0,30.25,NW,325,0.0,0.0,89,0.00,,,0.00,weatherlink.com 1.10,2013-03-07 07:13:00,
2013-03-07 02:28:00,31.2,28.0,30.26,NW,325,0.0,0.0,89,0.00,,,0.00,weatherlink.com 1.10,2013-03-07 07:28:00,
2013-03-07 02:43:00,31.0,28.0,30.25,NW,325,0.0,0.0,89,0.00,,,0.00,weatherlink.com 1.10,2013-03-07 07:43:00,
2013-03-07 02:58:00,30.9,28.0,30.25,NW,325,0.0,0.0,89,0.00,,,0.00,weatherlink.com 1.10,2013-03-07 07:58:00,
2013-03-07 03:13:00,30.8,28.0,30.25,NW,325,0.0,0.0,90,0.00,,,0.00,weatherlink.com 1.10,2013-03-07 08:13:00,
2013-03-07 03:28:00,30.7,28.0,30.25,NW,325,0.0,0.0,90,0.00,,,0.00,weatherlink.com 1.10,2013-03-07 08:28:00,
2013-03-07 03:43:00,30.6,28.0,30.26,NW,325,0.0,0.0,90,0.00,,,0.00,weatherlink.com 1.10,2013-03-07 08:43:00,
2013-03-07 03:58:00,30.7,28.0,30.26,NW,325,0.0,1.0,91,0.00,,,0.00,weatherlink.com 1.10,2013-03-07 08:58:00,
2013-03-07 04:14:00,30.8,29.0,30.27,NW,325,0.0,1.0,91,0.00,,,0.00,weatherlink.com 1.10,2013-03-07 09:14:00,
2013-03-07 04:29:00,30.8,29.0,30.27,NW,325,0.0,0.0,91,0.00,,,0.00,weatherlink.com 1.10,2013-03-07 09:29:00,
2013-03-07 04:44:00,31.0,29.0,30.27,NW,325,0.0,0.0,91,0.00,,,0.00,weatherlink.com 1.10,2013-03-07 09:44:00,
2013-03-07 04:59:00,31.1,29.0,30.27,NW,325,0.0,0.0,91,0.00,,,0.00,weatherlink.com 1.10,2013-03-07 09:59:00,
2013-03-07 05:14:00,31.1,29.0,30.28,NW,325,0.0,0.0,91,0.00,,,0.00,weatherlink.com 1.10,2013-03-07 10:14:00,
2013-03-07 05:29:00,31.2,29.0,30.28,NW,325,0.0,0.0,91,0.00,,,0.00,weatherlink.com 1.10,2013-03-07 10:29:00,
2013-03-07 05:44:00,31.2,29.0,30.29,NW,325,0.0,0.0,91,0.00,,,0.00,weatherlink.com 1.10,2013-03-07 10:44:00,
2013-03-07 05:59:00,31.2,29.0,30.30,NW,325,0.0,0.0,91,0.00,,,0.00,weatherlink.com 1.10,2013-03-07 10:59:00,
2013-03-07 06:14:00,31.2,29.0,30.30,NW,325,0.0,0.0,91,0.00,,,0.00,weatherlink.com 1.10,2013-03-07 11:14:00,
2013-03-07 06:29:00,31.2,29.0,30.31,NW,325,0.0,1.0,90,0.00,,,0.00,weatherlink.com 1.10,2013-03-07 11:29:00,
2013-03-07 06:44:00,31.1,29.0,30.30,NW,325,0.0,0.0,90,0.00,,,0.00,weatherlink.com 1.10,2013-03-07 11:44:00,
2013-03-07 06:59:00,31.1,29.0,30.31,North,349,0.0,3.0,91,0.00,,,0.00,weatherlink.com 1.10,2013-03-07 11:59:00,
2013-03-07 07:14:00,31.1,29.0,30.31,North,349,0.0,2.0,91,0.00,,,0.00,weatherlink.com 1.10,2013-03-07 12:14:00,
2013-03-07 07:29:00,31.2,29.0,30.32,North,349,0.0,2.0,91,0.00,,,0.00,weatherlink.com 1.10,2013-03-07 12:29:00,
2013-03-07 07:44:00,31.4,29.0,30.32,North,349,1.0,2.0,92,0.00,,,0.00,weatherlink.com 1.10,2013-03-07 12:44:00,
2013-03-07 07:59:00,31.7,29.0,30.32,NNW,345,1.0,4.0,91,0.00,,,0.00,weatherlink.com 1.10,2013-03-07 12:59:00,
2013-03-07 08:14:00,31.9,30.0,30.33,North,355,2.0,6.0,91,0.00,,,0.00,weatherlink.com 1.10,2013-03-07 13:14:00,
2013-03-07 08:29:00,32.3,30.0,30.34,NNW,333,0.0,5.0,91,0.00,,,0.00,weatherlink.com 1.10,2013-03-07 13:29:00,
2013-03-07 08:44:00,32.5,30.0,30.34,NNW,344,2.0,3.0,91,0.00,,,0.00,weatherlink.com 1.10,2013-03-07 13:44:00,
2013-03-07 08:59:00,32.7,30.0,30.35,NNW,340,2.0,6.0,90,0.00,,,0.00,weatherlink.com 1.10,2013-03-07 13:59:00,
2013-03-07 09:14:00,32.8,30.0,30.35,North,360,3.0,4.0,90,0.00,,,0.00,weatherlink.com 1.10,2013-03-07 14:14:00,
2013-03-07 09:29:00,32.8,30.0,30.36,NNW,333,0.0,8.0,90,0.00,,,0.00,weatherlink.com 1.10,2013-03-07 14:29:00,
2013-03-07 09:44:00,32.9,30.0,30.36,North,360,3.0,11.0,90,0.00,,,0.00,weatherlink.com 1.10,2013-03-07 14:44:00,
2013-03-07 09:59:00,33.2,30.0,30.36,NW,326,1.0,7.0,88,0.00,,,0.00,weatherlink.com 1.10,2013-03-07 14:59:00,
2013-03-07 10:14:00,33.5,30.0,30.36,North,360,3.0,6.0,87,0.00,,,0.00,weatherlink.com 1.10,2013-03-07 15:14:00,
2013-03-07 10:29:00,33.4,30.0,30.37,NNW,347,2.0,7.0,86,0.00,,,0.00,weatherlink.com 1.10,2013-03-07 15:29:00,
2013-03-07 10:44:00,33.4,29.0,30.37,North,355,4.0,7.0,85,0.00,,,0.00,weatherlink.com 1.10,2013-03-07 15:44:00,
2013-03-07 10:59:00,33.7,29.0,30.37,North,350,3.0,8.0,84,0.00,,,0.00,weatherlink.com 1.10,2013-03-07 15:59:00,
2013-03-07 11:14:00,33.9,29.0,30.38,SSW,205,2.0,8.0,83,0.00,,,0.00,weatherlink.com 1.10,2013-03-07 16:14:00,
2013-03-07 11:29:00,33.8,29.0,30.38,NNW,329,2.0,7.0,82,0.00,,,0.00,weatherlink.com 1.10,2013-03-07 16:29:00,
2013-03-07 11:44:00,34.3,29.0,30.38,NNW,347,9.0,9.0,81,0.00,,,0.00,weatherlink.com 1.10,2013-03-07 16:44:00,
2013-03-07 11:59:00,34.1,29.0,30.37,NNW,336,2.0,7.0,80,0.00,,,0.00,weatherlink.com 1.10,2013-03-07 16:59:00,
2013-03-07 12:15:00,34.5,28.0,30.38,NNW,338,3.0,8.0,78,0.00,,,0.00,weatherlink.com 1.10,2013-03-07 17:15:00,
2013-03-07 12:30:00,34.3,28.0,30.37,ENE,70,5.0,7.0,79,0.00,,,0.00,weatherlink.com 1.10,2013-03-07 17:30:00,
2013-03-07 12:45:00,34.5,28.0,30.37,NNW,333,1.0,5.0,78,0.00,,,0.00,weatherlink.com 1.10,2013-03-07 17:45:00,
2013-03-07 13:00:00,34.3,28.0,30.37,North,5,2.0,5.0,79,0.00,,,0.00,weatherlink.com 1.10,2013-03-07 18:00:00,
2013-03-07 13:15:00,34.4,28.0,30.37,NNW,340,2.0,7.0,78,0.00,,,0.00,weatherlink.com 1.10,2013-03-07 18:15:00,
2013-03-07 13:30:00,34.4,28.0,30.37,West,281,2.0,6.0,77,0.00,,,0.00,weatherlink.com 1.10,2013-03-07 18:30:00,
2013-03-07 13:45:00,34.7,28.0,30.37,North,355,0.0,4.0,75,0.00,,,0.00,weatherlink.com 1.10,2013-03-07 18:45:00,
2013-03-07 14:00:00,34.9,28.0,30.37,NW,320,5.0,6.0,75,0.00,,,0.00,weatherlink.com 1.10,2013-03-07 19:00:00,
2013-03-07 14:15:00,34.8,27.0,30.37,North,5,3.0,5.0,73,0.00,,,0.00,weatherlink.com 1.10,2013-03-07 19:15:00,
2013-03-07 14:30:00,34.6,26.0,30.37,North,350,1.0,6.0,71,0.00,,,0.00,weatherlink.com 1.10,2013-03-07 19:30:00,
2013-03-07 14:45:00,34.5,26.0,30.38,NNW,341,4.0,10.0,70,0.00,,,0.00,weatherlink.com 1.10,2013-03-07 19:45:00,
2013-03-07 15:00:00,34.3,26.0,30.38,NNW,334,0.0,9.0,72,0.00,,,0.00,weatherlink.com 1.10,2013-03-07 20:00:00,
2013-03-07 15:15:00,34.5,26.0,30.38,North,355,3.0,6.0,72,0.00,,,0.00,weatherlink.com 1.10,2013-03-07 20:15:00,
2013-03-07 15:30:00,34.4,26.0,30.38,NW,326,1.0,7.0,70,0.00,,,0.00,weatherlink.com 1.10,2013-03-07 20:30:00,
2013-03-07 15:45:00,34.4,26.0,30.38,NNW,348,2.0,4.0,70,0.00,,,0.00,weatherlink.com 1.10,2013-03-07 20:45:00,
2013-03-07 16:00:00,34.3,26.0,30.39,NW,325,2.0,4.0,71,0.00,,,0.00,weatherlink.com 1.10,2013-03-07 21:00:00,
2013-03-07 16:15:00,34.1,26.0,30.39,NNW,334,0.0,6.0,72,0.00,,,0.00,weatherlink.com 1.10,2013-03-07 21:15:00,
2013-03-07 16:30:00,33.8,25.0,30.40,NNW,327,2.0,8.0,69,0.00,,,0.00,weatherlink.com 1.10,2013-03-07 21:30:00,
2013-03-07 16:45:00,33.5,24.0,30.39,NNW,333,1.0,7.0,68,0.00,,,0.00,weatherlink.com 1.10,2013-03-07 21:45:00,
2013-03-07 17:00:00,33.4,23.0,30.40,North,355,6.0,7.0,67,0.00,,,0.00,weatherlink.com 1.10,2013-03-07 22:00:00,
2013-03-07 17:15:00,33.1,23.0,30.40,NNE,12,2.0,6.0,67,0.00,,,0.00,weatherlink.com 1.10,2013-03-07 22:15:00,
2013-03-07 17:30:00,32.8,23.0,30.40,NNW,346,2.0,7.0,66,0.00,,,0.00,weatherlink.com 1.10,2013-03-07 22:30:00,
2013-03-07 17:45:00,32.5,22.0,30.40,North,5,3.0,8.0,65,0.00,,,0.00,weatherlink.com 1.10,2013-03-07 22:45:00,
2013-03-07 18:00:00,32.4,22.0,30.41,North,350,3.0,6.0,65,0.00,,,0.00,weatherlink.com 1.10,2013-03-07 23:00:00,
2013-03-07 18:15:00,32.2,22.0,30.41,North,350,0.0,5.0,67,0.00,,,0.00,weatherlink.com 1.10,2013-03-07 23:15:00,
2013-03-07 18:30:00,32.1,22.0,30.42,NNW,331,0.0,4.0,67,0.00,,,0.00,weatherlink.com 1.10,2013-03-07 23:30:00,
2013-03-07 18:45:00,32.0,22.0,30.43,North,351,2.0,4.0,66,0.00,,,0.00,weatherlink.com 1.10,2013-03-07 23:45:00,
2013-03-07 19:00:00,31.7,22.0,30.43,North,355,0.0,3.0,67,0.00,,,0.00,weatherlink.com 1.10,2013-03-08 00:00:00,
2013-03-07 19:15:00,31.4,22.0,30.43,NNW,340,0.0,2.0,69,0.00,,,0.00,weatherlink.com 1.10,2013-03-08 00:15:00,
2013-03-07 19:30:00,31.1,22.0,30.44,NNW,340,0.0,0.0,70,0.00,,,0.00,weatherlink.com 1.10,2013-03-08 00:30:00,
2013-03-07 19:45:00,30.6,22.0,30.44,NNW,340,0.0,1.0,69,0.00,,,0.00,weatherlink.com 1.10,2013-03-08 00:45:00,
2013-03-07 20:00:00,30.3,22.0,30.44,NNW,340,0.0,2.0,70,0.00,,,0.00,weatherlink.com 1.10,2013-03-08 01:00:00,
2013-03-07 20:15:00,30.3,22.0,30.44,NNW,340,1.0,2.0,71,0.00,,,0.00,weatherlink.com 1.10,2013-03-08 01:15:00,
2013-03-07 20:31:00,30.2,22.0,30.44,NNW,340,1.0,1.0,70,0.00,,,0.00,weatherlink.com 1.10,2013-03-08 01:31:00,
2013-03-07 20:45:00,30.2,22.0,30.44,NNW,340,0.0,0.0,71,0.00,,,0.00,weatherlink.com 1.10,2013-03-08 01:45:00,
2013-03-07 21:00:00,30.0,22.0,30.44,NNW,340,0.0,0.0,72,0.00,,,0.00,weatherlink.com 1.10,2013-03-08 02:00:00,
2013-03-07 21:15:00,29.8,22.0,30.44,NNW,340,0.0,0.0,72,0.00,,,0.00,weatherlink.com 1.10,2013-03-08 02:15:00,
2013-03-07 21:30:00,29.6,22.0,30.45,NNW,340,0.0,0.0,73,0.00,,,0.00,weatherlink.com 1.10,2013-03-08 02:30:00,
2013-03-07 21:45:00,29.3,22.0,30.45,NNW,340,0.0,0.0,74,0.00,,,0.00,weatherlink.com 1.10,2013-03-08 02:45:00,
2013-03-07 22:00:00,28.8,22.0,30.45,NNW,340,0.0,0.0,75,0.00,,,0.00,weatherlink.com 1.10,2013-03-08 03:00:00,
2013-03-07 22:31:00,27.4,21.0,30.44,NNW,340,0.0,0.0,78,0.00,,,0.00,weatherlink.com 1.10,2013-03-08 03:31:00,
2013-03-07 22:46:00,26.7,22.0,30.44,NNW,340,0.0,0.0,81,0.00,,,0.00,weatherlink.com 1.10,2013-03-08 03:46:00,
2013-03-07 23:01:00,26.2,21.0,30.45,NNW,340,0.0,0.0,82,0.00,,,0.00,weatherlink.com 1.10,2013-03-08 04:01:00,
2013-03-07 23:16:00,25.5,21.0,30.44,NNW,340,0.0,0.0,82,0.00,,,0.00,weatherlink.com 1.10,2013-03-08 04:16:00,
2013-03-07 23:31:00,25.0,21.0,30.44,NNW,340,0.0,0.0,83,0.00,,,0.00,weatherlink.com 1.10,2013-03-08 04:31:00,
2013-03-07 23:46:00,24.5,20.0,30.45,NNW,340,0.0,0.0,84,0.00,,,0.00,weatherlink.com 1.10,2013-03-08 04:46:00,